星链-33936 (STARLINK-33936)

导读

STARLINK-33936是美国SpaceX公司星链星座的卫星,于2025年5月14日前后由猎鹰9号火箭发射升空,属于星链组网任务的一部分。作为星链互联网星座的成员,该卫星运行在近地轨道,依托星座庞大规模,为全球提供高速卫星互联网服务,覆盖偏远地区、航空和海事等场景,进一步扩充了星链系统的服务能力。

Basic Information
目录编号:
64005
目录名称:
STARLINK-33936
国际标识:
2025-101M
轨道中心:
EARTH
卫星名称:
星链-33936
卫星全名:
星链-33936 (STARLINK-33936)
卫星状态:
在轨 (已飞行478 天)
发射日期:
2025-05-14 UTC
国别 :
美国 (US)
星等 :
--
Orbit Information
数据来源 国际轨道数据
星历时间: 2026-09-03T22:04:41+0800
18小时前
查看轨道信息
半长轴: 6861.162km
偏心率: 0.000182
轨道倾角: 43.002°
近地点辐角 272.832°
升交点赤经 73.174°
平近点角 87.233°
近地点: 481.776km
远地点: 484.274km
周期: 94.266分钟
每日圈数: 15.275883
Detailed Information
固有亮度:
5
最大亮度:
2.5
卫星平台:
Starlink V1.0
覆盖范围:
全球
运营商:
太空探索技术公司
运营商所在国:
美国
制造商(研发单位):
太空探索技术公司
制造商所在国:
美国
使用方式:
暂无
Satellite Introduction
Starlink 计划是 SpaceX 推出的全球卫星互联网项目,通过发射低轨道卫星,为全球尤其是偏远地区提供高速、低延迟的互联网服务。自 2019 年起,Starlink 已部署数千颗卫星,旨在缩小全球数字鸿沟,推动互联网普及。该项目还为军事、航空等行业提供通信支持,带来广泛经济效益。
2D Orbit Map
3D Orbit Map
Orbit Altitude Analysis Chart
Orbit Inclination Analysis Chart
Orbit Comprehensive Analysis Chart
View Comprehensive Chart
Conjunction Data List
Event ID Objects TCA Miss Dist (km) Collision Risk Probability Collision Risk Index (CRI) Action
CDM_260904-002905-935606-400521
2026-09-04T
00:29:39+0000
0.435 km
远距离
1.930675E-4 高风险 0.81
CDM_260905-000905-545506-400521
2026-09-05T
00:09:34+0000
0.458 km
远距离
9.245535E-5 中风险 0.74
CDM_260904-185805-923406-400521
2026-09-04T
18:58:34+0000
1.118 km
极远距离
1.356277E-5 中风险 0.58
CDM_260905-042505-819606-400521
2026-09-05T
04:25:15+0000
1.287 km
极远距离
8.537244E-6 低风险 0.54
CDM_260905-014805-904306-400521
2026-09-05T
01:48:59+0000
1.010 km
极远距离
7.451871E-6 低风险 0.52
CDM_260904-215305-904306-400521
2026-09-04T
21:53:36+0000
1.018 km
极远距离
7.248376E-6 低风险 0.52
CDM_260904-121505-935606-400521
2026-09-04T
12:15:48+0000
1.498 km
极远距离
4.38727E-6 低风险 0.48
CDM_260904-104105-935606-400521
2026-09-04T
10:41:39+0000
1.544 km
极远距离
3.985742E-6 低风险 0.47
CDM_260829-214505-864706-400522
2026-08-29T
21:45:38+0000
1.819 km
极远距离
3.605338E-6 低风险 0.46
CDM_260905-064405-923406-400521
2026-09-05T
06:44:43+0000
1.683 km
极远距离
3.496021E-6 低风险 0.46